Tracking 35048 objects as of 19-Aug-2026
HD Live streaming from Space Station
objects crossing your sky now

MEZNSAT


MEZNSAT is no longer on orbit
MEZNSAT is classified as:


NORAD ID: 46489
Int'l Code: 2020-068D
Launch date: September 28, 2020
Source: (UNK)
Launch site: PLESETSK MISSILE AND SPACE COMPLEX (PKMTR)
Decay date: 2025-05-06

Uplink (MHz):
Downlink (MHz): 436.600
Beacon (MHz):
Mode: 1k2-9k6* BPSK
Call sign: A68MZ
Status: Reentered

Your satellite tracking list
Your tracking list is empty




NASA's NSSDC Master Catalog

Two Line Element Set (TLE):
1 46489U 20068D   25122.19000044  .13801218  28762-5  41319-3 0  9992
2 46489  97.7956 120.2839 0010301 238.1381 121.8917 16.44344453254134
Source of the keplerian elements: AFSPC